1537084800.43,33535,18.75,74516.5,16.45,-15.39,-16.27,0,*44
1537084801.67,33536,18.75,74518.8,16.43,-16.93,-17.97,0,*48
1537084802.9,33537,18.75,74518.8,16.43,-17.55,-18.73,0,*47
1537084804.14,33538,18.75,74518.0,16.41,-18.99,-20.25,0,*4D
1537084805.41,33539,18.75,74516.5,16.43,-17.97,-19.27,0,*47
1537084806.64,33540,18.75,74516.0,16.39,-18.25,-19.41,0,*42
1537084807.93,33541,18.75,74520.3,16.33,-19.61,-20.83,0,*4C
1537084809.14,33542,18.75,74518.3,16.31,-18.11,-19.17,0,*4C
1537084810.36,33543,18.75,74518.8,16.31,-15.75,-16.79,0,*45
1537084811.62,33544,18.75,74518.0,16.31,-14.75,-15.85,0,*43
1537084812.85,33545,18.75,74516.5,16.31,-16.59,-17.79,0,*4F
1537084814.09,33546,18.75,74518.3,16.33,-18.21,-19.47,0,*4C
1537084815.32,33547,18.75,74520.0,16.31,-15.99,-17.07,0,*4B
1537084816.56,33548,18.75,74516.5,16.31,-19.41,-20.69,0,*41
1537084817.8,33549,18.75,74518.0,16.27,-19.57,-20.73,0,*4B
1537084819.02,33550,18.75,74516.8,16.27,-16.93,-17.83,0,*4F
1537084820.25,33551,18.75,74516.3,16.23,-16.69,-17.73,0,*40
1537084821.49,33552,18.75,74516.5,16.23,-16.37,-17.41,0,*49
1537084822.73,33553,18.75,74516.0,16.27,-14.89,-15.89,0,*4D
1537084823.96,33554,18.75,74518.5,16.27,-15.01,-15.95,0,*46
1537084825.19,33555,18.75,74518.8,16.31,-15.43,-16.45,0,*48
1537084826.43,33556,18.75,74518.3,16.31,-14.55,-15.53,0,*49
1537084827.7,33557,18.81,74522.0,16.33,-14.37,-15.35,0,*4E
1537084828.93,33558,18.75,74520.5,16.39,-14.89,-15.81,0,*41
1537084830.17,33559,18.75,74520.5,16.39,-14.29,-15.21,0,*40
1537084831.4,33560,18.75,74522.8,16.41,-15.71,-16.89,0,*48
1537084832.64,33561,18.81,74520.5,16.43,-15.85,-16.75,0,*43
1537084833.89,33562,18.75,74522.0,16.41,-17.79,-18.99,0,*4F
1537084835.11,33563,18.75,74516.0,16.43,-17.69,-18.89,0,*4C
1537084836.32,33564,18.75,74520.8,16.39,-18.79,-19.99,0,*48
1537084837.58,33565,18.75,74518.8,16.33,-19.41,-20.69,0,*4C
1537084838.85,33566,18.81,74522.5,16.33,-19.75,-20.99,0,*47
1537084840.08,33567,18.75,74518.0,16.29,-20.93,-22.27,0,*48
1537084841.31,33568,18.75,74518.0,16.23,-21.09,-22.21,0,*49
1537084842.57,33569,18.81,74520.5,16.17,-20.93,-22.17,0,*48
1537084843.82,33570,18.75,74516.0,16.13,-24.05,-25.49,0,*43
1537084845.03,33571,18.81,74518.0,16.03,-24.31,-25.61,0,*4E
1537084846.28,33572,18.75,74516.3,16.01,-20.63,-21.87,0,*40
1537084847.52,33573,18.81,74520.5,15.97,-20.35,-21.43,0,*46
1537084848.74,33574,18.81,74518.0,15.97,-19.95,-21.09,0,*4F
1537084849.99,33575,18.75,74518.8,15.93,-19.13,-20.35,0,*4A
1537084851.19,33576,18.75,74516.5,15.95,-20.73,-22.03,0,*44
1537084852.44,33577,18.81,74522.0,15.89,-21.17,-22.47,0,*4B
1537084853.72,33578,18.81,74518.5,15.85,-21.67,-22.77,0,*4C
1537084854.99,33579,18.81,74516.8,15.79,-22.77,-24.15,0,*4E
1537084856.22,33580,18.81,74518.8,15.77,-21.93,-23.23,0,*4D
1537084857.47,33581,18.75,74516.5,15.71,-23.39,-24.83,0,*45
1537084858.69,33582,18.81,74518.0,15.69,-23.39,-24.87,0,*4B
1537084859.91,33583,18.81,74518.8,15.61,-23.13,-24.41,0,*40
1537084861.13,33584,18.81,74518.8,15.57,-22.67,-24.11,0,*45
1537084862.33,33585,18.81,74518.3,15.53,-25.23,-26.61,0,*42
1537084863.57,33586,18.81,74516.8,15.47,-24.35,-25.71,0,*40
1537084864.76,33587,18.81,74516.0,15.43,-24.93,-26.23,0,*4D
1537084865.97,33588,18.81,74518.3,15.35,-24.51,-25.87,0,*40
1537084867.21,33589,18.81,74516.5,15.31,-24.71,-25.91,0,*40
1537084868.44,33590,18.75,74512.8,15.27,-22.57,-23.99,0,*43
1537084869.67,33591,18.75,74514.5,15.23,-22.93,-24.15,0,*4D
1537084870.9,33592,18.81,74516.0,15.21,-21.17,-22.37,0,*45
1537084872.17,33593,18.81,74516.5,15.21,-19.57,-20.63,0,*48
1537084873.42,33594,18.75,74514.8,15.17,-17.97,-19.03,0,*44
1537084874.66,33595,18.75,74512.0,15.21,-18.07,-19.13,0,*47
1537084875.89,33596,18.81,74512.0,15.23,-18.35,-19.37,0,*41
1537084877.15,33597,18.81,74516.5,15.25,-17.45,-18.65,0,*48
1537084878.38,33598,18.81,74518.3,15.25,-16.97,-18.21,0,*49
1537084879.61,33599,18.81,74514.3,15.27,-16.03,-17.21,0,*48
1537084880.86,33600,18.81,74514.3,15.31,-16.17,-17.41,0,*4F
1537084882.14,33601,18.81,74518.8,15.33,-15.89,-17.03,0,*4E
1537084883.37,33602,18.81,74518.5,15.37,-15.63,-16.75,0,*4D
1537084884.62,33603,18.81,74514.0,15.37,-15.99,-17.07,0,*4D
1537084885.88,33604,18.81,74516.0,15.43,-16.27,-17.45,0,*49
1537084887.13,33605,18.81,74518.3,15.43,-16.27,-17.41,0,*4C
1537084888.36,33606,18.81,74516.8,15.45,-16.59,-17.69,0,*4A
1537084889.59,33607,18.81,74516.0,15.47,-16.45,-17.55,0,*4B
1537084890.84,33608,18.81,74518.5,15.49,-15.57,-16.69,0,*44
1537084892.07,33609,18.81,74520.3,15.49,-16.27,-17.35,0,*49
1537084893.3,33610,18.81,74520.5,15.53,-15.85,-16.97,0,*48
1537084894.55,33611,18.81,74514.3,15.55,-15.49,-16.65,0,*42
1537084895.8,33612,18.81,74518.8,15.55,-14.93,-15.95,0,*4B
1537084897.08,33613,18.81,74516.3,15.59,-16.27,-17.45,0,*44
1537084898.28,33614,18.81,74520.5,15.61,-16.55,-17.73,0,*48
1537084899.54,33615,18.81,74516.5,15.61,-16.13,-17.45,0,*4E
1537084900.77,33616,18.81,74516.8,15.63,-15.71,-16.89,0,*49
1537084902.0,33617,18.81,74516.8,15.63,-18.99,-20.29,0,*4C
1537084903.22,33618,18.81,74514.3,15.61,-18.49,-19.85,0,*40
1537084904.44,33619,18.81,74516.0,15.61,-18.01,-19.07,0,*47
1537084905.64,33620,18.81,74514.8,15.61,-16.89,-18.07,0,*42
1537084906.89,33621,18.81,74518.3,15.61,-16.09,-17.17,0,*45
1537084908.12,33622,18.81,74516.0,15.61,-16.37,-17.45,0,*4C
1537084909.35,33623,18.81,74516.8,15.63,-16.55,-17.73,0,*4E
1537084910.6,33624,18.81,74516.3,15.63,-15.85,-16.89,0,*43
1537084911.87,33625,18.81,74514.8,15.63,-19.13,-20.53,0,*43
1537084913.06,33626,18.81,74514.5,15.61,-17.87,-18.99,0,*4C
1537084914.32,33627,18.81,74518.3,15.63,-17.17,-18.45,0,*47
1537084915.6,33628,18.81,74516.5,15.63,-16.09,-17.41,0,*4D
1537084916.84,33629,18.81,74516.0,15.63,-15.49,-16.75,0,*4D
1537084918.07,33630,18.81,74518.0,15.63,-15.71,-16.75,0,*4E
1537084919.3,33631,18.81,74518.0,15.69,-14.61,-15.57,0,*46
1537084920.57,33632,18.81,74518.0,15.71,-15.43,-16.65,0,*4F
1537084921.77,33633,18.81,74518.0,15.73,-15.71,-16.83,0,*45
1537084922.99,33634,18.81,74518.5,15.73,-15.95,-17.17,0,*44
1537084924.24,33635,18.81,74516.5,15.75,-15.53,-16.65,0,*4D
1537084925.46,33636,18.81,74516.3,15.77,-16.31,-17.49,0,*44
1537084926.66,33637,18.81,74516.5,15.77,-15.63,-16.75,0,*4F
1537084927.91,33638,18.81,74516.8,15.77,-14.47,-15.57,0,*44
1537084929.16,33639,18.81,74518.5,15.81,-15.35,-16.41,0,*4C
1537084930.41,33640,18.81,74520.5,15.81,-15.81,-16.89,0,*49
1537084931.65,33641,18.81,74518.8,15.81,-15.11,-16.27,0,*45
1537084932.9,33642,18.81,74518.3,15.85,-16.03,-17.25,0,*41
1537084934.15,33643,18.81,74516.3,15.85,-15.89,-16.97,0,*49
1537084935.4,33644,18.81,74516.0,15.85,-14.29,-15.35,0,*4E
1537084936.64,33645,18.81,74518.3,15.91,-14.97,-16.17,0,*4C
1537084937.87,33646,18.81,74516.8,15.91,-15.43,-16.59,0,*4D
1537084939.11,33647,18.81,74518.0,15.91,-14.93,-16.13,0,*4E
1537084940.38,33648,18.81,74518.0,15.93,-15.85,-17.03,0,*45
1537084941.6,33649,18.81,74520.3,15.95,-15.25,-16.51,0,*4E
1537084942.85,33650,18.81,74516.3,15.95,-16.27,-17.45,0,*43
1537084944.07,33651,18.81,74522.8,15.95,-15.25,-16.51,0,*47
1537084945.32,33652,18.81,74520.3,15.97,-15.07,-16.09,0,*4B
1537084946.58,33653,18.81,74520.3,15.99,-14.83,-15.85,0,*4E
1537084947.81,33654,18.81,74518.5,16.01,-14.29,-15.29,0,*4D
1537084949.02,33655,18.81,74516.3,16.03,-14.29,-15.29,0,*4E
1537084950.29,33656,18.81,74518.3,16.05,-16.23,-17.41,0,*4F
1537084951.51,33657,18.81,74518.8,16.05,-15.67,-16.79,0,*47
1537084952.76,33658,18.81,74522.0,16.05,-15.35,-16.41,0,*44
1537084954.02,33659,18.81,74520.3,16.07,-14.83,-15.85,0,*40
1537084955.21,33660,18.81,74518.3,16.07,-15.07,-16.03,0,*4A
1537084956.46,33661,18.81,74520.8,16.07,-14.43,-15.43,0,*4D
1537084957.7,33662,18.81,74516.5,16.11,-14.01,-15.11,0,*48
1537084958.9,33663,18.81,74520.3,16.15,-13.65,-14.61,0,*4E
1537084960.13,33664,18.81,74516.0,16.15,-14.19,-15.25,0,*44
1537084961.39,33665,18.81,74518.8,16.17,-14.11,-15.21,0,*4B
1537084962.66,33666,18.81,74520.5,16.19,-14.93,-16.09,0,*45
1537084963.89,33667,18.81,74522.3,16.21,-15.25,-16.41,0,*4F
1537084965.15,33668,18.81,74518.5,16.21,-15.43,-16.59,0,*49
1537084966.4,33669,18.88,74526.3,16.21,-15.01,-16.03,0,*41
1537084967.66,33670,18.81,74520.3,16.21,-14.89,-15.89,0,*49
1537084968.89,33671,18.81,74522.0,16.23,-14.33,-15.21,0,*49
1537084970.11,33672,18.81,74518.0,16.23,-14.33,-15.49,0,*44
1537084971.41,33673,18.81,74520.5,16.29,-14.55,-15.43,0,*45
1537084972.69,33674,18.81,74520.3,16.29,-15.01,-16.09,0,*4F
1537084973.97,33675,18.81,74520.5,16.29,-15.43,-16.51,0,*45
1537084975.2,33676,18.81,74522.0,16.29,-15.95,-16.97,0,*47
1537084976.46,33677,18.81,74520.3,16.29,-15.35,-16.45,0,*43
1537084977.69,33678,18.81,74522.5,16.31,-16.59,-17.55,0,*4C
1537084978.93,33679,18.81,74522.3,16.31,-17.55,-18.45,0,*4E
1537084980.14,33680,18.81,74520.5,16.27,-19.07,-20.29,0,*47
1537084981.38,33681,18.81,74520.0,16.23,-19.57,-20.69,0,*43
1537084982.61,33682,18.81,74520.3,16.19,-19.51,-20.89,0,*41
1537084983.81,33683,18.81,74520.5,16.15,-20.05,-21.13,0,*45
1537084985.04,33684,18.81,74520.3,16.11,-19.75,-20.99,0,*48
1537084986.29,33685,18.81,74522.0,16.07,-20.53,-21.83,0,*4A
1537084987.54,33686,18.81,74520.0,16.05,-21.13,-22.31,0,*44
1537084988.79,33687,18.81,74524.5,15.97,-21.67,-22.97,0,*42
1537084990.0,33688,18.81,74522.3,15.93,-22.87,-24.35,0,*4A
1537084991.25,33689,18.81,74520.3,15.89,-23.85,-25.35,0,*42
1537084992.5,33690,18.81,74522.5,15.79,-22.87,-24.25,0,*46
1537084993.75,33691,18.81,74522.0,15.75,-23.13,-24.71,0,*46
1537084994.97,33692,18.81,74522.0,15.69,-23.03,-24.35,0,*49
1537084996.22,33693,18.81,74522.8,15.67,-22.11,-23.29,0,*4E
1537084997.45,33694,18.81,74520.3,15.61,-21.77,-23.03,0,*44
1537084998.65,33695,18.81,74518.8,15.57,-18.45,-19.51,0,*45
1537084999.91,33696,18.81,74518.3,15.59,-16.65,-17.69,0,*41
1537085001.14,33697,18.88,74520.8,15.57,-17.07,-18.17,0,*4D
1537085002.4,33698,18.81,74522.0,15.67,-19.23,-20.43,0,*43
1537085003.65,33699,18.88,74522.3,15.61,-16.27,-17.17,0,*4A
1537085004.88,33700,18.81,74518.5,15.63,-15.99,-16.83,0,*43
1537085006.12,33701,18.81,74518.5,15.63,-15.99,-17.11,0,*48
1537085007.37,33702,18.81,74520.3,15.69,-17.45,-18.55,0,*4D
1537085008.63,33703,18.81,74520.5,15.67,-18.41,-19.81,0,*41
1537085009.89,33704,18.81,74520.8,15.67,-17.41,-18.41,0,*44
1537085011.17,33705,18.88,74522.3,15.63,-17.25,-18.31,0,*44
1537085012.43,33706,18.81,74520.5,15.67,-19.95,-21.33,0,*4E
1537085013.65,33707,18.81,74518.8,15.61,-19.75,-20.79,0,*48
1537085014.88,33708,18.88,74520.5,15.61,-17.41,-18.45,0,*4A
1537085016.1,33709,18.81,74518.5,15.61,-17.03,-18.07,0,*4B
1537085017.36,33710,18.81,74518.0,15.63,-16.09,-16.97,0,*4D
1537085018.64,33711,18.88,74520.8,15.63,-15.39,-16.23,0,*43
1537085019.92,33712,18.81,74522.5,15.67,-14.93,-15.81,0,*4E
1537085021.14,33713,18.88,74520.5,15.69,-15.15,-16.13,0,*46
1537085022.42,33714,18.88,74520.8,15.71,-15.85,-17.17,0,*44
1537085023.67,33715,18.88,74520.8,15.73,-16.13,-17.11,0,*4D
1537085024.94,33716,18.81,74520.3,15.75,-14.93,-15.89,0,*41
1537085026.18,33717,18.81,74520.0,15.77,-15.01,-15.89,0,*48
1537085027.44,33718,18.81,74520.8,15.79,-15.25,-16.17,0,*4B
1537085028.68,33719,18.88,74522.5,15.79,-16.27,-17.31,0,*4E
1537085029.93,33720,18.81,74520.8,15.79,-16.51,-17.49,0,*4A
1537085031.21,33721,18.81,74520.8,15.81,-16.27,-17.45,0,*41
1537085032.45,33722,18.88,74526.0,15.79,-18.55,-19.47,0,*42
1537085033.72,33723,18.81,74522.3,15.79,-19.31,-20.39,0,*43
1537085034.99,33724,18.88,74520.8,15.79,-18.31,-19.23,0,*44
1537085036.19,33725,18.81,74518.3,15.77,-18.21,-19.37,0,*4F
1537085037.47,33726,18.81,74520.0,15.75,-20.15,-21.23,0,*4C
1537085038.71,33727,18.88,74520.3,15.71,-20.09,-21.27,0,*40
1537085039.96,33728,18.81,74520.0,15.69,-20.19,-21.33,0,*42
1537085041.19,33729,18.88,74522.5,15.67,-19.07,-20.25,0,*4E
1537085042.4,33730,18.88,74522.3,15.61,-18.79,-19.91,0,*4D
1537085043.62,33731,18.88,74522.5,15.61,-19.07,-20.19,0,*4E
1537085044.86,33732,18.88,74522.3,15.59,-18.69,-19.95,0,*41
1537085046.07,33733,18.88,74524.5,15.57,-18.79,-19.71,0,*45
1537085047.3,33734,18.81,74520.0,15.57,-18.31,-19.51,0,*4C
1537085048.5,33735,18.88,74520.0,15.57,-20.09,-21.47,0,*41
1537085049.73,33736,18.88,74522.8,15.53,-21.53,-22.83,0,*43
1537085050.96,33737,18.88,74524.3,15.51,-22.41,-23.89,0,*4B
1537085052.21,33738,18.88,74526.0,15.45,-23.59,-24.87,0,*40
1537085053.44,33739,18.88,74520.8,15.35,-22.17,-23.39,0,*4F
1537085054.72,33740,18.88,74524.3,15.33,-20.79,-21.87,0,*4A
1537085055.97,33741,18.88,74522.3,15.31,-20.99,-22.21,0,*48
1537085057.22,33742,18.88,74524.5,15.29,-21.57,-22.83,0,*49
1537085058.42,33743,18.88,74520.5,15.27,-22.87,-24.35,0,*43
1537085059.65,33744,18.81,74520.0,15.21,-23.09,-24.35,0,*45
1537085060.9,33745,18.88,74522.0,15.17,-23.39,-24.67,0,*45
1537085062.16,33746,18.88,74524.5,15.11,-20.89,-22.17,0,*49
1537085063.38,33747,18.88,74526.3,15.09,-20.53,-21.73,0,*47
1537085064.61,33748,18.88,74524.5,15.09,-21.33,-22.83,0,*43
1537085065.86,33749,18.88,74524.5,15.05,-23.29,-24.71,0,*4C
1537085067.12,33750,18.88,74526.0,15.01,-21.87,-23.29,0,*4C
1537085068.38,33751,18.88,74526.0,14.95,-20.99,-22.07,0,*42
1537085069.61,33752,18.88,74520.8,14.95,-21.17,-22.37,0,*45
1537085070.84,33753,18.88,74524.3,14.95,-21.47,-22.63,0,*40
1537085072.06,33754,18.81,74522.8,14.91,-20.73,-22.11,0,*40
1537085073.32,33755,18.88,74520.5,14.91,-21.83,-23.13,0,*4C
1537085074.52,33756,18.88,74522.0,14.85,-23.13,-24.35,0,*42
1537085075.76,33757,18.88,74522.5,14.83,-22.67,-24.11,0,*41
1537085077.04,33758,18.88,74524.3,14.79,-23.03,-24.41,0,*4D
1537085078.3,33759,18.88,74524.5,14.75,-23.95,-25.49,0,*46
1537085079.54,33760,18.88,74524.5,14.69,-24.15,-25.61,0,*44
1537085080.74,33761,18.88,74524.0,14.65,-22.41,-23.79,0,*41
1537085081.97,33762,18.88,74524.0,14.61,-23.49,-24.77,0,*46
1537085083.25,33763,18.88,74524.8,14.59,-24.15,-25.71,0,*45
1537085084.47,33764,18.88,74528.0,14.53,-23.75,-25.19,0,*47
1537085085.67,33765,18.88,74524.0,14.47,-24.47,-25.91,0,*45
1537085086.9,33766,18.88,74524.8,14.45,-22.97,-24.31,0,*44
1537085088.18,33767,18.88,74524.0,14.41,-22.17,-23.49,0,*41
1537085089.43,33768,18.88,74526.3,14.39,-22.31,-23.65,0,*4B
1537085090.67,33769,18.88,74526.8,14.39,-20.59,-21.83,0,*4C
1537085091.92,33770,18.88,74528.3,14.37,-21.57,-22.83,0,*46
1537085093.16,33771,18.88,74526.0,14.37,-22.97,-24.31,0,*47
1537085094.37,33772,18.88,74522.8,14.35,-23.09,-24.31,0,*40
1537085095.61,33773,18.88,74524.3,14.31,-24.21,-25.61,0,*4C
1537085096.86,33774,18.88,74520.3,14.25,-22.87,-24.15,0,*46
1537085098.08,33775,18.88,74520.8,14.23,-23.69,-25.13,0,*47
1537085099.31,33776,18.88,74524.3,14.17,-23.85,-25.39,0,*49
1537085100.55,33777,18.88,74522.5,14.15,-23.39,-24.67,0,*47
1537085101.78,33778,18.88,74520.0,14.13,-21.33,-22.67,0,*40
1537085103.01,33779,18.88,74520.8,14.13,-19.61,-20.73,0,*4A
1537085104.25,33780,18.88,74522.5,14.11,-21.39,-22.73,0,*4A
1537085105.5,33781,18.88,74520.0,14.11,-21.83,-23.13,0,*4D
1537085106.76,33782,18.88,74520.5,14.09,-23.53,-24.87,0,*42
1537085108.01,33783,18.88,74524.0,14.03,-23.19,-24.47,0,*4B
1537085109.25,33784,18.88,74522.8,14.03,-22.41,-23.69,0,*4B
1537085110.53,33785,18.88,74526.0,13.99,-21.87,-23.53,0,*4E
1537085111.8,33786,18.88,74526.0,13.99,-22.73,-23.95,0,*4F
1537085113.02,33787,18.88,74526.8,13.99,-22.63,-23.89,0,*42
1537085114.28,33788,18.88,74526.0,13.95,-21.87,-23.13,0,*4B
1537085115.51,33789,18.88,74526.3,13.95,-20.43,-21.43,0,*44
1537085116.77,33790,18.88,74524.8,13.95,-18.65,-19.81,0,*46
1537085118.02,33791,18.88,74522.8,13.99,-16.97,-17.97,0,*41
1537085119.23,33792,18.88,74520.8,14.01,-17.49,-18.69,0,*48
1537085120.47,33793,18.88,74526.0,14.03,-17.93,-19.03,0,*41
1537085121.72,33794,18.88,74526.8,14.05,-17.25,-18.35,0,*49
1537085122.93,33795,18.88,74526.3,14.05,-16.83,-17.87,0,*43
1537085124.18,33796,18.88,74526.3,14.11,-16.75,-17.79,0,*4D
1537085125.46,33797,18.88,74526.0,14.15,-18.35,-19.61,0,*45
1537085126.72,33798,18.88,74526.3,14.15,-19.47,-20.53,0,*45
1537085127.97,33799,18.88,74524.3,14.15,-20.63,-21.97,0,*41
1537085129.19,33800,18.88,74520.8,14.13,-20.69,-21.97,0,*42
1537085130.44,33801,18.88,74524.5,14.11,-22.17,-23.59,0,*4A
1537085131.66,33802,18.88,74522.0,14.09,-22.73,-24.05,0,*4C
1537085132.9,33803,18.88,74526.0,14.03,-23.39,-24.67,0,*4C
1537085134.13,33804,18.88,74524.8,13.99,-23.09,-24.35,0,*4B
1537085135.33,33805,18.88,74522.5,13.97,-21.39,-22.67,0,*44
1537085136.57,33806,18.88,74524.0,13.97,-21.27,-22.53,0,*4F
1537085137.84,33807,18.88,74522.5,13.95,-20.15,-21.27,0,*4C
1537085139.13,33808,18.88,74524.8,13.95,-20.99,-22.17,0,*47
1537085140.33,33809,18.88,74526.0,13.93,-21.17,-22.41,0,*44
1537085141.56,33810,18.88,74526.0,13.91,-20.39,-21.63,0,*40
1537085142.8,33811,18.88,74522.5,13.93,-19.57,-20.63,0,*40
1537085144.01,33812,18.88,74522.5,13.93,-18.99,-20.05,0,*40
1537085145.21,33813,18.88,74526.0,13.93,-17.31,-18.25,0,*45
1537085146.49,33814,18.88,74526.8,13.95,-16.65,-17.45,0,*4D
1537085147.73,33815,18.88,74522.8,13.97,-16.55,-17.55,0,*4C
1537085148.93,33816,18.88,74526.0,14.01,-16.03,-16.97,0,*4B
1537085150.16,33817,18.88,74526.5,14.05,-15.53,-16.69,0,*49
1537085151.41,33818,18.88,74524.5,14.11,-16.09,-16.97,0,*4E
1537085152.64,33819,18.88,74526.3,14.13,-15.81,-16.75,0,*42
1537085153.89,33820,18.88,74526.5,14.15,-15.89,-16.89,0,*45
1537085155.14,33821,18.88,74526.8,14.19,-15.89,-16.97,0,*47
1537085156.37,33822,18.88,74526.0,14.23,-16.03,-17.07,0,*44
1537085157.63,33823,18.88,74526.5,14.25,-15.85,-16.83,0,*43
1537085158.91,33824,18.88,74524.3,14.25,-16.51,-17.59,0,*48
1537085160.17,33825,18.88,74524.8,14.27,-16.23,-17.17,0,*44
1537085161.42,33826,18.88,74522.8,14.33,-16.31,-17.49,0,*4A
1537085162.67,33827,18.88,74524.3,14.33,-17.17,-18.21,0,*4F
1537085163.93,33828,18.88,74526.8,14.33,-15.75,-16.65,0,*48
1537085165.16,33829,18.88,74526.5,14.37,-15.95,-16.97,0,*4E
1537085166.39,33830,18.88,74524.3,14.39,-16.65,-17.73,0,*4F
1537085167.63,33831,18.88,74530.3,14.39,-19.71,-21.03,0,*46
1537085168.83,33832,18.88,74524.0,14.39,-18.79,-19.91,0,*4C
1537085170.06,33833,18.88,74526.8,14.35,-18.07,-19.31,0,*42
1537085171.29,33834,18.88,74526.8,14.35,-17.49,-18.55,0,*43
1537085172.5,33835,18.88,74526.0,14.39,-16.83,-17.87,0,*49
1537085173.73,33836,18.88,74524.5,14.39,-19.41,-20.63,0,*45
1537085174.94,33837,18.88,74524.5,14.39,-19.95,-21.17,0,*4F
1537085176.17,33838,18.88,74524.0,14.35,-18.83,-20.35,0,*4B
1537085177.41,33839,18.88,74524.3,14.37,-16.75,-17.87,0,*42
1537085178.66,33840,18.88,74522.3,14.37,-15.81,-16.89,0,*4B
1537085179.92,33841,18.88,74524.3,14.41,-15.89,-16.83,0,*49
1537085181.15,33842,18.88,74530.0,14.41,-16.79,-17.87,0,*43
1537085182.43,33843,18.88,74526.5,14.41,-18.01,-19.31,0,*40
1537085183.67,33844,18.88,74528.3,14.39,-19.31,-20.43,0,*45
1537085184.91,33845,18.88,74526.5,14.39,-19.57,-20.73,0,*47
1537085186.16,33846,18.88,74524.0,14.37,-20.35,-21.63,0,*44
1537085187.38,33847,18.88,74526.8,14.35,-19.91,-21.03,0,*45
1537085188.59,33848,18.88,74526.8,14.35,-18.83,-19.95,0,*4C
1537085189.82,33849,18.88,74524.8,14.35,-18.35,-19.51,0,*48
1537085191.05,33850,18.88,74524.5,14.31,-18.41,-19.85,0,*4E
1537085192.29,33851,18.88,74522.3,14.33,-16.79,-17.83,0,*40
1537085193.55,33852,18.88,74522.0,14.33,-17.03,-18.11,0,*4B
1537085194.76,33853,18.88,74526.0,14.35,-18.69,-19.95,0,*42
1537085195.97,33854,18.88,74526.5,14.35,-19.95,-21.17,0,*46
1537085197.2,33855,18.88,74522.3,14.31,-20.49,-22.03,0,*4E
1537085198.44,33856,18.88,74524.8,14.31,-20.89,-22.31,0,*40
1537085199.69,33857,18.88,74524.0,14.25,-21.43,-22.73,0,*45
1537085200.92,33858,18.88,74524.0,14.23,-21.27,-22.57,0,*48
1537085202.14,33859,18.88,74524.8,14.17,-20.79,-22.07,0,*41
1537085203.36,33860,18.88,74524.0,14.17,-20.29,-21.57,0,*48
1537085204.6,33861,18.88,74524.8,14.17,-20.35,-21.57,0,*44
1537085205.8,33862,18.88,74526.3,14.13,-20.39,-21.63,0,*48
1537085206.99,33863,18.88,74524.0,14.13,-20.25,-21.43,0,*46
1537085208.22,33864,18.88,74526.5,14.13,-20.09,-21.27,0,*4D
1537085209.45,33865,18.88,74528.0,14.09,-19.95,-21.03,0,*4E
1537085210.65,33866,18.88,74526.8,14.09,-20.25,-21.39,0,*45
1537085211.93,33867,18.88,74524.5,14.03,-19.61,-20.83,0,*44
1537085213.15,33868,18.88,74524.0,14.03,-18.79,-19.95,0,*4E
1537085214.36,33869,18.88,74526.3,14.05,-18.83,-20.05,0,*4F
1537085215.61,33870,18.88,74526.8,14.03,-18.49,-19.61,0,*4F
1537085216.81,33871,18.88,74524.0,14.09,-18.17,-19.37,0,*4C
1537085218.06,33872,18.88,74526.0,14.09,-18.01,-19.23,0,*4D
1537085219.29,33873,18.88,74526.8,14.09,-16.59,-17.55,0,*40
1537085220.51,33874,18.88,74524.8,14.09,-16.75,-17.63,0,*4C
1537085221.74,33875,18.88,74524.0,14.15,-18.65,-19.75,0,*46
1537085222.97,33876,18.88,74526.3,14.09,-18.45,-19.61,0,*4F
1537085224.18,33877,18.88,74524.8,14.11,-18.17,-19.07,0,*40
1537085225.43,33878,18.88,74524.0,14.11,-16.79,-18.01,0,*4E
1537085226.7,33879,18.88,74520.0,14.15,-19.27,-20.39,0,*4F
1537085227.92,33880,18.88,74528.0,14.13,-18.89,-20.05,0,*45
1537085229.18,33881,18.88,74526.0,14.11,-20.59,-21.87,0,*4B
1537085230.44,33882,18.88,74526.0,14.09,-19.31,-20.53,0,*4D
1537085231.67,33883,18.88,74526.3,14.09,-19.81,-20.89,0,*40
1537085232.88,33884,18.94,74528.3,14.09,-17.63,-18.79,0,*41
1537085234.13,33885,18.88,74524.5,14.09,-16.51,-17.41,0,*44
1537085235.38,33886,18.88,74522.8,14.11,-16.75,-17.79,0,*43
1537085236.61,33887,18.88,74524.5,14.13,-15.81,-16.75,0,*45
1537085237.89,33888,18.88,74528.3,14.15,-17.97,-19.27,0,*41
1537085239.12,33889,18.88,74524.5,14.15,-18.25,-19.47,0,*40
1537085240.39,33890,18.88,74524.5,14.15,-18.35,-19.41,0,*4F
1537085241.64,33891,18.88,74524.3,14.15,-20.09,-21.33,0,*44
1537085242.87,33892,18.88,74526.3,14.13,-19.95,-21.03,0,*4D
1537085244.09,33893,18.94,74528.8,14.13,-17.63,-18.69,0,*4D
1537085245.32,33894,18.88,74526.3,14.11,-19.51,-20.73,0,*47
1537085246.53,33895,18.88,74524.0,14.11,-20.29,-21.39,0,*4C
1537085247.76,33896,18.88,74526.3,14.09,-18.69,-19.81,0,*41
1537085248.96,33897,18.94,74528.5,14.09,-19.99,-21.17,0,*4A
1537085250.22,33898,18.88,74524.5,14.09,-19.31,-20.53,0,*46
1537085251.42,33899,18.94,74530.0,14.05,-21.13,-22.41,0,*41
1537085252.67,33900,18.88,74524.3,14.03,-19.91,-21.03,0,*42
1537085253.9,33901,18.88,74526.8,14.01,-18.69,-19.81,0,*46
1537085255.12,33902,18.94,74528.5,14.03,-17.73,-19.03,0,*49
1537085256.34,33903,18.88,74524.5,14.03,-17.35,-18.41,0,*4D
1537085257.57,33904,18.88,74524.5,14.05,-15.67,-16.65,0,*41
1537085258.79,33905,18.88,74524.5,14.09,-15.89,-16.97,0,*41
1537085260.02,33906,18.94,74526.5,14.11,-16.79,-17.83,0,*43
1537085261.22,33907,18.94,74526.8,14.09,-18.45,-19.75,0,*4D
1537085262.45,33908,18.88,74524.5,14.11,-19.07,-20.25,0,*43
1537085263.68,33909,18.88,74526.0,14.13,-18.89,-20.09,0,*49
1537085264.93,33910,18.94,74524.5,14.11,-16.79,-17.79,0,*41
1537085266.2,33911,18.94,74524.8,14.11,-16.17,-17.11,0,*46
1537085267.46,33912,18.88,74526.3,14.15,-15.85,-16.75,0,*4A
1537085268.71,33913,18.94,74528.0,14.15,-15.29,-16.31,0,*4D
1537085269.96,33914,18.88,74526.0,14.19,-18.41,-19.61,0,*4F
1537085271.19,33915,18.94,74524.3,14.17,-18.07,-19.23,0,*44
1537085272.42,33916,18.94,74530.8,14.19,-16.79,-17.87,0,*4E
1537085273.7,33917,18.94,74524.0,14.19,-16.09,-17.07,0,*40
1537085274.99,33918,18.94,74526.5,14.21,-15.81,-16.69,0,*4E
1537085276.21,33919,18.94,74524.0,14.23,-15.11,-16.13,0,*49
1537085277.47,33920,18.88,74522.3,14.25,-15.25,-16.23,0,*41
1537085278.66,33921,18.94,74524.3,14.31,-15.49,-16.45,0,*4F
1537085279.92,33922,18.88,74522.8,14.33,-15.57,-16.41,0,*45
1537085281.14,33923,18.88,74524.3,14.35,-15.99,-17.03,0,*47
1537085282.4,33924,18.88,74524.8,14.35,-16.17,-17.21,0,*45
1537085283.66,33925,18.88,74526.0,14.37,-15.39,-16.41,0,*4E
1537085284.85,33926,18.88,74522.8,14.39,-15.49,-16.45,0,*40
1537085286.1,33927,18.94,74528.0,14.41,-15.43,-16.37,0,*41
1537085287.35,33928,18.94,74528.0,14.41,-15.63,-16.69,0,*47
1537085288.61,33929,18.94,74526.3,14.45,-15.57,-16.55,0,*4A
1537085289.88,33930,18.94,74526.0,14.45,-15.39,-16.27,0,*4F
1537085291.11,33931,18.94,74526.0,14.45,-15.53,-16.41,0,*42
1537085292.33,33932,18.94,74526.0,14.49,-16.97,-18.21,0,*4E
1537085293.55,33933,18.88,74526.0,14.53,-16.89,-18.11,0,*48
1537085294.81,33934,18.94,74526.3,14.53,-16.17,-17.21,0,*44